This is the latest recevied weather packets stored in our database for station/object 9M2EVR-2. If no packets are shown the sender has not sent any weather packets the latest 10 day(s).
| Time | Temp. | Humidity | Pressure | Rain* | Wind** | Luminosity | Snow |
|---|---|---|---|---|---|---|---|
| 1778141626 | 45.56° C | 34% | 1001.7 hPa | - | - | - | - |
| 1778140725 | 45.56° C | 34% | 1001.8 hPa | - | - | - | - |
| 1778139824 | 45° C | 35% | 1002.1 hPa | - | - | - | - |
| 1778138923 | 45° C | 35% | 1002.6 hPa | - | - | - | - |
| 1778138022 | 44.44° C | 36% | 1002.9 hPa | - | - | - | - |
| 1778137121 | 45° C | 36% | 1003.2 hPa | - | - | - | - |
| 1778136221 | 44.44° C | 36% | 1003.4 hPa | - | - | - | - |
| 1778135320 | 44.44° C | 37% | 1003.7 hPa | - | - | - | - |
| 1778134419 | 43.89° C | 38% | 1003.9 hPa | - | - | - | - |
| 1778133518 | 43.89° C | 38% | 1004.1 hPa | - | - | - | - |
| 1778132617 | 43.33° C | 37% | 1004.4 hPa | - | - | - | - |
| 1778131717 | 43.33° C | 39% | 1005 hPa | - | - | - | - |
| 1778130816 | 42.78° C | 40% | 1005.3 hPa | - | - | - | - |
| 1778129915 | 42.78° C | 39% | 1005.7 hPa | - | - | - | - |
| 1778129014 | 42.78° C | 41% | 1006 hPa | - | - | - | - |
| 1778128113 | 42.22° C | 42% | 1006.2 hPa | - | - | - | - |
| 1778127213 | 42.22° C | 41% | 1006.2 hPa | - | - | - | - |
| 1778126312 | 42.22° C | 41% | 1006.3 hPa | - | - | - | - |
| 1778124510 | 41.67° C | 44% | 1006.4 hPa | - | - | - | - |
| 1778106533 | 37.22° C | 48% | 1005 hPa | - | - | - | - |
| 1778105632 | 37.22° C | 48% | 1004.9 hPa | - | - | - | - |
| 1778104731 | 37.22° C | 48% | 1004.9 hPa | - | - | - | - |
| 1778099326 | 37.22° C | 48% | 1005 hPa | - | - | - | - |
| 1778098425 | 37.78° C | 48% | 1005.1 hPa | - | - | - | - |
| 1778096624 | 37.78° C | 48% | 1005.1 hPa | - | - | - | - |
* Rain since midnight (hover to see other rain measurements)
** Current wind speed in m/s (hover to see current wind gust speed)